owner,sensor,date,latitude,longitude,vertical_datum,direction_of_sea_water_velocity,sea_water_speed,upward_sea_water_velocity,qcFlag 
TABS,ioos:station:wmo:42043:1,1998-06-01T00:00:00Z,28.9818,-94.9186,2.0,50.14766845,23.48581274,-99999.0,'11111222,11111222,99999999' 
TABS,ioos:station:wmo:42043:1,1998-06-01T00:30:00Z,28.9818,-94.9186,2.0,50.66266425,23.50579503,-99999.0,'11111222,11111222,99999999' 
TABS,ioos:station:wmo:42043:1,1998-06-01T01:00:00Z,28.9818,-94.9186,2.0,50.6120988,23.71690115,-99999.0,'11111222,11111222,99999999' 
TABS,ioos:station:wmo:42043:1,1998-06-01T01:30:00Z,28.9818,-94.9186,2.0,52.75075276,22.65049668,-99999.0,'11111222,11111222,99999999' 
TABS,ioos:station:wmo:42043:1,1998-06-01T02:00:00Z,28.9818,-94.9186,2.0,60.67098934,20.68085588,-99999.0,'11111222,11111222,99999999' 
TABS,ioos:station:wmo:42043:1,1998-06-01T02:30:00Z,28.9818,-94.9186,2.0,64.68849221,21.26115002,-99999.0,'11111222,11111222,99999999' 
TABS,ioos:station:wmo:42043:1,1998-06-01T03:00:00Z,28.9818,-94.9186,2.0,67.05540994,21.03418408,-99999.0,'11111222,11111222,99999999' 
TABS,ioos:station:wmo:42043:1,1998-06-01T03:30:00Z,28.9818,-94.9186,2.0,61.42491412,24.60741758,-99999.0,'11111222,11111222,99999999' 
TABS,ioos:station:wmo:42043:1,1998-06-01T04:00:00Z,28.9818,-94.9186,2.0,62.45476285,23.52687825,-99999.0,'11111222,11111222,99999999' 
TABS,ioos:station:wmo:42043:1,1998-06-01T04:30:00Z,28.9818,-94.9186,2.0,60.97231069,24.87463367,-99999.0,'11111222,11111222,99999999' 
TABS,ioos:station:wmo:42043:1,1998-06-01T05:00:00Z,28.9818,-94.9186,2.0,67.48264593,24.51926997,-99999.0,'11111222,11111222,99999999' 
TABS,ioos:station:wmo:42043:1,1998-06-01T05:30:00Z,28.9818,-94.9186,2.0,70.7341685,25.73099687,-99999.0,'11111222,11111222,99999999' 
TABS,ioos:station:wmo:42043:1,1998-06-01T06:00:00Z,28.9818,-94.9186,2.0,71.2197128,23.60683164,-99999.0,'11111222,11111222,99999999' 
TABS,ioos:station:wmo:42043:1,1998-06-01T06:30:00Z,28.9818,-94.9186,2.0,72.71854204,23.56374334,-99999.0,'11111222,11111222,99999999' 
TABS,ioos:station:wmo:42043:1,1998-06-01T07:00:00Z,28.9818,-94.9186,2.0,72.09692519,25.21076357,-99999.0,'11111222,11111222,99999999' 
TABS,ioos:station:wmo:42043:1,1998-06-01T07:30:00Z,28.9818,-94.9186,2.0,75.78417977,22.43708092,-99999.0,'11111222,11111222,99999999' 
TABS,ioos:station:wmo:42043:1,1998-06-01T08:00:00Z,28.9818,-94.9186,2.0,77.63018257,25.0208553,-99999.0,'11111222,11111222,99999999' 
TABS,ioos:station:wmo:42043:1,1998-06-01T08:30:00Z,28.9818,-94.9186,2.0,72.64601594,24.97695138,-99999.0,'11111222,11111222,99999999' 
TABS,ioos:station:wmo:42043:1,1998-06-01T09:00:00Z,28.9818,-94.9186,2.0,75.28723376,24.64818857,-99999.0,'11111222,11111222,99999999' 
TABS,ioos:station:wmo:42043:1,1998-06-01T09:30:00Z,28.9818,-94.9186,2.0,72.79449022,24.17169005,-99999.0,'11111222,11111222,99999999' 
TABS,ioos:station:wmo:42043:1,1998-06-01T10:00:00Z,28.9818,-94.9186,2.0,70.02896826,24.41839675,-99999.0,'11111222,11111222,99999999' 
TABS,ioos:station:wmo:42043:1,1998-06-01T10:30:00Z,28.9818,-94.9186,2.0,70.94079794,25.54007048,-99999.0,'11111222,11111222,99999999' 
TABS,ioos:station:wmo:42043:1,1998-06-01T11:00:00Z,28.9818,-94.9186,2.0,73.33900689,24.41499744,-99999.0,'11111222,11111222,99999999' 
TABS,ioos:station:wmo:42043:1,1998-06-01T11:30:00Z,28.9818,-94.9186,2.0,76.04811373,24.71925767,-99999.0,'11111222,11111222,99999999' 
TABS,ioos:station:wmo:42043:1,1998-06-01T12:00:00Z,28.9818,-94.9186,2.0,68.02309658,26.66783268,-99999.0,'11111222,11111222,99999999' 
TABS,ioos:station:wmo:42043:1,1998-06-01T12:30:00Z,28.9818,-94.9186,2.0,64.73915534,26.52663756,-99999.0,'11111222,11111222,99999999' 
TABS,ioos:station:wmo:42043:1,1998-06-01T13:00:00Z,28.9818,-94.9186,2.0,64.11249259,27.98858339,-99999.0,'11111222,11111222,99999999' 
TABS,ioos:station:wmo:42043:1,1998-06-01T13:30:00Z,28.9818,-94.9186,2.0,63.14733648,26.72134914,-99999.0,'11111222,11111222,99999999' 
TABS,ioos:station:wmo:42043:1,1998-06-01T14:00:00Z,28.9818,-94.9186,2.0,65.30424721,26.73523892,-99999.0,'11111222,11111222,99999999' 
TABS,ioos:station:wmo:42043:1,1998-06-01T14:30:00Z,28.9818,-94.9186,2.0,67.73877131,27.53207765,-99999.0,'11111222,11111222,99999999' 
TABS,ioos:station:wmo:42043:1,1998-06-01T15:00:00Z,28.9818,-94.9186,2.0,65.31185423,28.53859317,-99999.0,'11111222,11111222,99999999' 
TABS,ioos:station:wmo:42043:1,1998-06-01T15:30:00Z,28.9818,-94.9186,2.0,66.53935357,29.56395271,-99999.0,'11111222,11111222,99999999' 
TABS,ioos:station:wmo:42043:1,1998-06-01T16:00:00Z,28.9818,-94.9186,2.0,69.54880728,26.87386277,-99999.0,'11111222,11111222,99999999' 
TABS,ioos:station:wmo:42043:1,1998-06-01T16:30:00Z,28.9818,-94.9186,2.0,65.60044149,29.94444523,-99999.0,'11111222,11111222,99999999' 
TABS,ioos:station:wmo:42043:1,1998-06-01T17:00:00Z,28.9818,-94.9186,2.0,66.93489758,31.57403047,-99999.0,'11111222,11111222,99999999' 
TABS,ioos:station:wmo:42043:1,1998-06-01T17:30:00Z,28.9818,-94.9186,2.0,74.93751454,32.0926113,-99999.0,'11111222,11111222,99999999' 
TABS,ioos:station:wmo:42043:1,1998-06-01T18:00:00Z,28.9818,-94.9186,2.0,73.99503893,35.65195366,-99999.0,'11111222,11111222,99999999' 
TABS,ioos:station:wmo:42043:1,1998-06-01T18:30:00Z,28.9818,-94.9186,2.0,75.9089685,35.4878289,-99999.0,'11111222,11111222,99999999' 
TABS,ioos:station:wmo:42043:1,1998-06-01T19:00:00Z,28.9818,-94.9186,2.0,75.67927433,36.14310446,-99999.0,'11111222,11111222,99999999' 
TABS,ioos:station:wmo:42043:1,1998-06-01T19:30:00Z,28.9818,-94.9186,2.0,77.09329218,34.69661223,-99999.0,'11111222,11111222,99999999' 
TABS,ioos:station:wmo:42043:1,1998-06-01T20:00:00Z,28.9818,-94.9186,2.0,75.01928919,35.16516742,-99999.0,'11111222,11111222,99999999' 
TABS,ioos:station:wmo:42043:1,1998-06-01T20:30:00Z,28.9818,-94.9186,2.0,72.60092494,36.38478803,-99999.0,'11111222,11111222,99999999' 
TABS,ioos:station:wmo:42043:1,1998-06-01T21:00:00Z,28.9818,-94.9186,2.0,72.38649902,35.9556296,-99999.0,'11111222,11111222,99999999' 
TABS,ioos:station:wmo:42043:1,1998-06-01T21:30:00Z,28.9818,-94.9186,2.0,72.37548015,36.89165895,-99999.0,'11111222,11111222,99999999' 
TABS,ioos:station:wmo:42043:1,1998-06-01T22:00:00Z,28.9818,-94.9186,2.0,72.87450906,36.94821376,-99999.0,'11111222,11111222,99999999' 
TABS,ioos:station:wmo:42043:1,1998-06-01T22:30:00Z,28.9818,-94.9186,2.0,75.44911415,36.18049889,-99999.0,'11111222,11111222,99999999' 
TABS,ioos:station:wmo:42043:1,1998-06-01T23:00:00Z,28.9818,-94.9186,2.0,75.1599722,38.3801889,-99999.0,'11111222,11111222,99999999' 
TABS,ioos:station:wmo:42043:1,1998-06-01T23:30:00Z,28.9818,-94.9186,2.0,77.03244372,36.5419225,-99999.0,'11111222,11111222,99999999' 
TABS,ioos:station:wmo:42043:1,1998-06-02T00:00:00Z,28.9818,-94.9186,2.0,77.01884579,35.16877735,-99999.0,'11111222,11111222,99999999' 
TABS,ioos:station:wmo:42043:1,1998-06-02T00:30:00Z,28.9818,-94.9186,2.0,77.44043036,36.32934902,-99999.0,'11111222,11111222,99999999' 
TABS,ioos:station:wmo:42043:1,1998-06-02T01:00:00Z,28.9818,-94.9186,2.0,77.8385076,35.36364517,-99999.0,'11111222,11111222,99999999' 
TABS,ioos:station:wmo:42043:1,1998-06-02T01:30:00Z,28.9818,-94.9186,2.0,80.03848964,33.58634395,-99999.0,'11111222,11111222,99999999' 
TABS,ioos:station:wmo:42043:1,1998-06-02T02:00:00Z,28.9818,-94.9186,2.0,80.06990876,32.82170776,-99999.0,'11111222,11111222,99999999' 
TABS,ioos:station:wmo:42043:1,1998-06-02T02:30:00Z,28.9818,-94.9186,2.0,82.98925568,30.47787558,-99999.0,'11111222,11111222,99999999' 
TABS,ioos:station:wmo:42043:1,1998-06-02T03:00:00Z,28.9818,-94.9186,2.0,79.07496713,30.65560471,-99999.0,'11111222,11111222,99999999' 
TABS,ioos:station:wmo:42043:1,1998-06-02T03:30:00Z,28.9818,-94.9186,2.0,80.48376828,27.94455224,-99999.0,'11111222,11111222,99999999' 
TABS,ioos:station:wmo:42043:1,1998-06-02T04:00:00Z,28.9818,-94.9186,2.0,77.73698997,28.06025659,-99999.0,'11111222,11111222,99999999' 
TABS,ioos:station:wmo:42043:1,1998-06-02T04:30:00Z,28.9818,-94.9186,2.0,80.06271005,26.77165105,-99999.0,'11111222,11111222,99999999' 
TABS,ioos:station:wmo:42043:1,1998-06-02T05:00:00Z,28.9818,-94.9186,2.0,79.95067491,26.47620252,-99999.0,'11111222,11111222,99999999' 
TABS,ioos:station:wmo:42043:1,1998-06-02T05:30:00Z,28.9818,-94.9186,2.0,78.81051701,26.12664923,-99999.0,'11111222,11111222,99999999' 
TABS,ioos:station:wmo:42043:1,1998-06-02T06:00:00Z,28.9818,-94.9186,2.0,75.6433825,26.45619965,-99999.0,'11111222,11111222,99999999' 
TABS,ioos:station:wmo:42043:1,1998-06-02T06:30:00Z,28.9818,-94.9186,2.0,74.86748251,26.23988186,-99999.0,'11111222,11111222,99999999' 
TABS,ioos:station:wmo:42043:1,1998-06-02T07:00:00Z,28.9818,-94.9186,2.0,77.40548951,24.581491,-99999.0,'11111222,11111222,99999999' 
TABS,ioos:station:wmo:42043:1,1998-06-02T07:30:00Z,28.9818,-94.9186,2.0,73.6424253,23.29283366,-99999.0,'11111222,11111222,99999999' 
TABS,ioos:station:wmo:42043:1,1998-06-02T08:00:00Z,28.9818,-94.9186,2.0,74.09837338,23.39525807,-99999.0,'11111222,11111222,99999999' 
TABS,ioos:station:wmo:42043:1,1998-06-02T08:30:00Z,28.9818,-94.9186,2.0,70.49858557,22.76601854,-99999.0,'11111222,11111222,99999999' 
TABS,ioos:station:wmo:42043:1,1998-06-02T09:00:00Z,28.9818,-94.9186,2.0,68.94164641,23.62800457,-99999.0,'11111222,11111222,99999999' 
TABS,ioos:station:wmo:42043:1,1998-06-02T09:30:00Z,28.9818,-94.9186,2.0,70.84007789,22.24207949,-99999.0,'11111222,11111222,99999999' 
TABS,ioos:station:wmo:42043:1,1998-06-02T10:00:00Z,28.9818,-94.9186,2.0,72.47170564,20.78509081,-99999.0,'11111222,11111222,99999999' 
TABS,ioos:station:wmo:42043:1,1998-06-02T10:30:00Z,28.9818,-94.9186,2.0,72.14774178,23.32300367,-99999.0,'11111222,11111222,99999999' 
TABS,ioos:station:wmo:42043:1,1998-06-02T11:00:00Z,28.9818,-94.9186,2.0,69.28206731,24.84676438,-99999.0,'11111222,11111222,99999999' 
TABS,ioos:station:wmo:42043:1,1998-06-02T11:30:00Z,28.9818,-94.9186,2.0,66.53942421,24.69111986,-99999.0,'11111222,11111222,99999999' 
TABS,ioos:station:wmo:42043:1,1998-06-02T12:00:00Z,28.9818,-94.9186,2.0,69.96258555,25.21637761,-99999.0,'11111222,11111222,99999999' 
TABS,ioos:station:wmo:42043:1,1998-06-02T12:30:00Z,28.9818,-94.9186,2.0,60.79747991,25.94798836,-99999.0,'11111222,11111222,99999999' 
TABS,ioos:station:wmo:42043:1,1998-06-02T13:00:00Z,28.9818,-94.9186,2.0,59.78299643,27.24143352,-99999.0,'11111222,11111222,99999999' 
TABS,ioos:station:wmo:42043:1,1998-06-02T13:30:00Z,28.9818,-94.9186,2.0,55.77006828,26.48811054,-99999.0,'11111222,11111222,99999999' 
TABS,ioos:station:wmo:42043:1,1998-06-02T14:00:00Z,28.9818,-94.9186,2.0,62.87513646,27.46022578,-99999.0,'11111222,11111222,99999999' 
TABS,ioos:station:wmo:42043:1,1998-06-02T14:30:00Z,28.9818,-94.9186,2.0,67.79179683,27.1976249,-99999.0,'11111222,11111222,99999999' 
TABS,ioos:station:wmo:42043:1,1998-06-02T15:00:00Z,28.9818,-94.9186,2.0,69.95884394,26.96268718,-99999.0,'11111222,11111222,99999999' 
TABS,ioos:station:wmo:42043:1,1998-06-02T15:30:00Z,28.9818,-94.9186,2.0,68.3189288,27.41983406,-99999.0,'11111222,11111222,99999999' 
TABS,ioos:station:wmo:42043:1,1998-06-02T16:00:00Z,28.9818,-94.9186,2.0,72.17042457,27.23821764,-99999.0,'11111222,11111222,99999999' 
TABS,ioos:station:wmo:42043:1,1998-06-02T16:30:00Z,28.9818,-94.9186,2.0,69.34505866,29.14328911,-99999.0,'11111222,11111222,99999999' 
TABS,ioos:station:wmo:42043:1,1998-06-02T17:00:00Z,28.9818,-94.9186,2.0,67.61460455,29.33024548,-99999.0,'11111222,11111222,99999999' 
TABS,ioos:station:wmo:42043:1,1998-06-02T17:30:00Z,28.9818,-94.9186,2.0,68.72010737,33.25755553,-99999.0,'11111222,11111222,99999999' 
TABS,ioos:station:wmo:42043:1,1998-06-02T18:00:00Z,28.9818,-94.9186,2.0,71.23454615,32.88823498,-99999.0,'11111222,11111222,99999999' 
TABS,ioos:station:wmo:42043:1,1998-06-02T18:30:00Z,28.9818,-94.9186,2.0,72.71523476,33.08408983,-99999.0,'11111222,11111222,99999999' 
TABS,ioos:station:wmo:42043:1,1998-06-02T19:00:00Z,28.9818,-94.9186,2.0,72.8098545,32.75311436,-99999.0,'11111222,11111222,99999999' 
TABS,ioos:station:wmo:42043:1,1998-06-02T19:30:00Z,28.9818,-94.9186,2.0,72.28379994,33.78210769,-99999.0,'11111222,11111222,99999999' 
TABS,ioos:station:wmo:42043:1,1998-06-02T20:00:00Z,28.9818,-94.9186,2.0,70.99814692,33.87597674,-99999.0,'11111222,11111222,99999999' 
TABS,ioos:station:wmo:42043:1,1998-06-02T20:30:00Z,28.9818,-94.9186,2.0,71.88910014,33.55230245,-99999.0,'11111222,11111222,99999999' 
TABS,ioos:station:wmo:42043:1,1998-06-02T21:00:00Z,28.9818,-94.9186,2.0,68.90611586,33.53727777,-99999.0,'11111222,11111222,99999999' 
TABS,ioos:station:wmo:42043:1,1998-06-02T21:30:00Z,28.9818,-94.9186,2.0,68.3852716,34.77535047,-99999.0,'11111222,11111222,99999999' 
TABS,ioos:station:wmo:42043:1,1998-06-02T22:00:00Z,28.9818,-94.9186,2.0,65.49081631,33.41047141,-99999.0,'11111222,11111222,99999999' 
TABS,ioos:station:wmo:42043:1,1998-06-02T22:30:00Z,28.9818,-94.9186,2.0,70.66106829,38.68263305,-99999.0,'11111222,11111222,99999999' 
TABS,ioos:station:wmo:42043:1,1998-06-02T23:00:00Z,28.9818,-94.9186,2.0,70.20116994,39.59028416,-99999.0,'11111222,11111222,99999999' 
TABS,ioos:station:wmo:42043:1,1998-06-02T23:30:00Z,28.9818,-94.9186,2.0,69.56747083,41.82123982,-99999.0,'11111222,11111222,99999999' 
TABS,ioos:station:wmo:42043:1,1998-06-03T00:00:00Z,28.9818,-94.9186,2.0,70.35080138,42.08039211,-99999.0,'11111222,11111222,99999999' 
TABS,ioos:station:wmo:42043:1,1998-06-03T00:30:00Z,28.9818,-94.9186,2.0,72.4541091,39.53955488,-99999.0,'11111222,11111222,99999999' 
TABS,ioos:station:wmo:42043:1,1998-06-03T01:00:00Z,28.9818,-94.9186,2.0,71.8492026,38.26403011,-99999.0,'11111222,11111222,99999999' 
TABS,ioos:station:wmo:42043:1,1998-06-03T01:30:00Z,28.9818,-94.9186,2.0,73.43926333,36.06609627,-99999.0,'11111222,11111222,99999999' 
TABS,ioos:station:wmo:42043:1,1998-06-03T02:00:00Z,28.9818,-94.9186,2.0,72.94273868,37.09158934,-99999.0,'11111222,11111222,99999999' 
TABS,ioos:station:wmo:42043:1,1998-06-03T02:30:00Z,28.9818,-94.9186,2.0,72.30940778,36.75825486,-99999.0,'11111222,11111222,99999999' 
TABS,ioos:station:wmo:42043:1,1998-06-03T03:00:00Z,28.9818,-94.9186,2.0,72.57185974,37.79505259,-99999.0,'11111222,11111222,99999999' 
TABS,ioos:station:wmo:42043:1,1998-06-03T03:30:00Z,28.9818,-94.9186,2.0,72.37548015,36.89165895,-99999.0,'11111222,11111222,99999999' 
TABS,ioos:station:wmo:42043:1,1998-06-03T04:00:00Z,28.9818,-94.9186,2.0,69.30925147,35.8310759,-99999.0,'11111222,11111222,99999999' 
TABS,ioos:station:wmo:42043:1,1998-06-03T04:30:00Z,28.9818,-94.9186,2.0,68.14420841,33.22833881,-99999.0,'11111222,11111222,99999999' 
TABS,ioos:station:wmo:42043:1,1998-06-03T05:00:00Z,28.9818,-94.9186,2.0,64.28154165,35.71837622,-99999.0,'11111222,11111222,99999999' 
TABS,ioos:station:wmo:42043:1,1998-06-03T05:30:00Z,28.9818,-94.9186,2.0,65.92853153,33.61309566,-99999.0,'11111222,11111222,99999999' 
TABS,ioos:station:wmo:42043:1,1998-06-03T06:00:00Z,28.9818,-94.9186,2.0,61.01573504,31.67754094,-99999.0,'11111222,11111222,99999999' 
TABS,ioos:station:wmo:42043:1,1998-06-03T06:30:00Z,28.9818,-94.9186,2.0,59.03954799,30.40155424,-99999.0,'11111222,11111222,99999999' 
TABS,ioos:station:wmo:42043:1,1998-06-03T07:00:00Z,28.9818,-94.9186,2.0,53.64310008,30.16120853,-99999.0,'11111222,11111222,99999999' 
TABS,ioos:station:wmo:42043:1,1998-06-03T07:30:00Z,28.9818,-94.9186,2.0,50.49485932,28.57822423,-99999.0,'11111222,11111222,99999999' 
TABS,ioos:station:wmo:42043:1,1998-06-03T08:00:00Z,28.9818,-94.9186,2.0,48.5623973,30.61323407,-99999.0,'11111222,11111222,99999999' 
TABS,ioos:station:wmo:42043:1,1998-06-03T08:30:00Z,28.9818,-94.9186,2.0,48.83942025,29.88576417,-99999.0,'11111222,11111222,99999999' 
TABS,ioos:station:wmo:42043:1,1998-06-03T09:00:00Z,28.9818,-94.9186,2.0,49.11520271,29.36406648,-99999.0,'11111222,11111222,99999999' 
TABS,ioos:station:wmo:42043:1,1998-06-03T09:30:00Z,28.9818,-94.9186,2.0,50.56222966,29.3274513,-99999.0,'11111222,11111222,99999999' 
TABS,ioos:station:wmo:42043:1,1998-06-03T10:00:00Z,28.9818,-94.9186,2.0,50.90623253,30.71713691,-99999.0,'11111222,11111222,99999999' 
TABS,ioos:station:wmo:42043:1,1998-06-03T10:30:00Z,28.9818,-94.9186,2.0,49.81838162,31.40044108,-99999.0,'11111222,11111222,99999999' 
TABS,ioos:station:wmo:42043:1,1998-06-03T11:00:00Z,28.9818,-94.9186,2.0,50.22507465,31.2141154,-99999.0,'11111222,11111222,99999999' 
TABS,ioos:station:wmo:42043:1,1998-06-03T11:30:00Z,28.9818,-94.9186,2.0,50.90798767,31.66981686,-99999.0,'11111222,11111222,99999999' 
TABS,ioos:station:wmo:42043:1,1998-06-03T12:00:00Z,28.9818,-94.9186,2.0,51.71794717,32.45985983,-99999.0,'11111222,11111222,99999999' 
TABS,ioos:station:wmo:42043:1,1998-06-03T12:30:00Z,28.9818,-94.9186,2.0,50.66575283,34.09353311,-99999.0,'11111222,11111222,99999999' 
TABS,ioos:station:wmo:42043:1,1998-06-03T13:00:00Z,28.9818,-94.9186,2.0,51.83780824,31.83409807,-99999.0,'11111222,11111222,99999999' 
TABS,ioos:station:wmo:42043:1,1998-06-03T13:30:00Z,28.9818,-94.9186,2.0,50.94722957,30.50613873,-99999.0,'11111222,11111222,99999999' 
TABS,ioos:station:wmo:42043:1,1998-06-03T14:00:00Z,28.9818,-94.9186,2.0,51.78559141,30.34235489,-99999.0,'11111222,11111222,99999999' 
TABS,ioos:station:wmo:42043:1,1998-06-03T14:30:00Z,28.9818,-94.9186,2.0,48.68436308,31.14170355,-99999.0,'11111222,11111222,99999999' 
TABS,ioos:station:wmo:42043:1,1998-06-03T15:00:00Z,28.9818,-94.9186,2.0,48.7352129,30.71832841,-99999.0,'11111222,11111222,99999999' 
TABS,ioos:station:wmo:42043:1,1998-06-03T15:30:00Z,28.9818,-94.9186,2.0,47.13808571,33.73833724,-99999.0,'11111222,11111222,99999999' 
TABS,ioos:station:wmo:42043:1,1998-06-03T16:00:00Z,28.9818,-94.9186,2.0,48.10574518,33.02088581,-99999.0,'11111222,11111222,99999999' 
TABS,ioos:station:wmo:42043:1,1998-06-03T16:30:00Z,28.9818,-94.9186,2.0,47.01242878,35.84413481,-99999.0,'11111222,11111222,99999999' 
TABS,ioos:station:wmo:42043:1,1998-06-03T17:00:00Z,28.9818,-94.9186,2.0,48.0275875,31.8642778,-99999.0,'11111222,11111222,99999999' 
TABS,ioos:station:wmo:42043:1,1998-06-03T17:30:00Z,28.9818,-94.9186,2.0,46.56593652,34.67532264,-99999.0,'11111222,11111222,99999999' 
TABS,ioos:station:wmo:42043:1,1998-06-03T18:00:00Z,28.9818,-94.9186,2.0,48.97185381,30.42208737,-99999.0,'11111222,11111222,99999999' 
TABS,ioos:station:wmo:42043:1,1998-06-03T18:30:00Z,28.9818,-94.9186,2.0,46.53787402,31.61906071,-99999.0,'11111222,11111222,99999999' 
TABS,ioos:station:wmo:42043:1,1998-06-03T19:00:00Z,28.9818,-94.9186,2.0,47.64655366,31.85377843,-99999.0,'11111222,11111222,99999999' 
TABS,ioos:station:wmo:42043:1,1998-06-03T19:30:00Z,28.9818,-94.9186,2.0,50.33365869,30.58041857,-99999.0,'11111222,11111222,99999999' 
TABS,ioos:station:wmo:42043:1,1998-06-03T20:00:00Z,28.9818,-94.9186,2.0,51.74999705,25.9895402,-99999.0,'11111222,11111222,99999999' 
TABS,ioos:station:wmo:42043:1,1998-06-03T20:30:00Z,28.9818,-94.9186,2.0,49.84464273,24.951012,-99999.0,'11111222,11111222,99999999' 
TABS,ioos:station:wmo:42043:1,1998-06-03T21:00:00Z,28.9818,-94.9186,2.0,49.37754207,26.31041239,-99999.0,'11111222,11111222,99999999' 
TABS,ioos:station:wmo:42043:1,1998-06-03T21:30:00Z,28.9818,-94.9186,2.0,57.26600723,29.75548689,-99999.0,'11111222,11111222,99999999' 
TABS,ioos:station:wmo:42043:1,1998-06-03T22:00:00Z,28.9818,-94.9186,2.0,58.583037,26.01371946,-99999.0,'11111222,11111222,99999999' 
TABS,ioos:station:wmo:42043:1,1998-06-03T22:30:00Z,28.9818,-94.9186,2.0,59.48565103,23.1804616,-99999.0,'11111222,11111222,99999999' 
TABS,ioos:station:wmo:42043:1,1998-06-03T23:00:00Z,28.9818,-94.9186,2.0,50.04933117,22.73686214,-99999.0,'11111222,11111222,99999999' 
TABS,ioos:station:wmo:42043:1,1998-06-03T23:30:00Z,28.9818,-94.9186,2.0,46.95048027,21.60755886,-99999.0,'11111222,11111222,99999999' 
TABS,ioos:station:wmo:42043:1,1998-06-04T00:00:00Z,28.9818,-94.9186,2.0,41.26373957,19.42308163,-99999.0,'11111222,11111222,99999999' 
TABS,ioos:station:wmo:42043:1,1998-06-04T00:30:00Z,28.9818,-94.9186,2.0,41.30186434,22.80217972,-99999.0,'11111222,11111222,99999999' 
TABS,ioos:station:wmo:42043:1,1998-06-04T01:00:00Z,28.9818,-94.9186,2.0,39.27859533,22.12955038,-99999.0,'11111222,11111222,99999999' 
TABS,ioos:station:wmo:42043:1,1998-06-04T01:30:00Z,28.9818,-94.9186,2.0,42.19318836,21.51478794,-99999.0,'11111222,11111222,99999999' 
TABS,ioos:station:wmo:42043:1,1998-06-04T02:00:00Z,28.9818,-94.9186,2.0,38.53773851,23.43392626,-99999.0,'11111222,11111222,99999999' 
TABS,ioos:station:wmo:42043:1,1998-06-04T02:30:00Z,28.9818,-94.9186,2.0,36.56115347,22.26032345,-99999.0,'11111222,11111222,99999999' 
TABS,ioos:station:wmo:42043:1,1998-06-04T03:00:00Z,28.9818,-94.9186,2.0,37.89473705,23.03768435,-99999.0,'11111222,11111222,99999999' 
TABS,ioos:station:wmo:42043:1,1998-06-04T03:30:00Z,28.9818,-94.9186,2.0,40.74967413,25.56859402,-99999.0,'11111222,11111222,99999999' 
TABS,ioos:station:wmo:42043:1,1998-06-04T04:00:00Z,28.9818,-94.9186,2.0,40.70604901,26.72587697,-99999.0,'11111222,11111222,99999999' 
TABS,ioos:station:wmo:42043:1,1998-06-04T04:30:00Z,28.9818,-94.9186,2.0,43.04129332,27.72064213,-99999.0,'11111222,11111222,99999999' 
TABS,ioos:station:wmo:42043:1,1998-06-04T05:00:00Z,28.9818,-94.9186,2.0,41.97306254,29.86035666,-99999.0,'11111222,11111222,99999999' 
TABS,ioos:station:wmo:42043:1,1998-06-04T05:30:00Z,28.9818,-94.9186,2.0,41.54591032,31.45268192,-99999.0,'11111222,11111222,99999999' 
TABS,ioos:station:wmo:42043:1,1998-06-04T06:00:00Z,28.9818,-94.9186,2.0,42.90470093,31.52268548,-99999.0,'11111222,11111222,99999999' 
TABS,ioos:station:wmo:42043:1,1998-06-04T06:30:00Z,28.9818,-94.9186,2.0,45.57113927,31.92745684,-99999.0,'11111222,11111222,99999999' 
TABS,ioos:station:wmo:42043:1,1998-06-04T07:00:00Z,28.9818,-94.9186,2.0,46.39336355,30.24482766,-99999.0,'11111222,11111222,99999999' 
TABS,ioos:station:wmo:42043:1,1998-06-04T07:30:00Z,28.9818,-94.9186,2.0,47.03140114,29.72423422,-99999.0,'11111222,11111222,99999999' 
TABS,ioos:station:wmo:42043:1,1998-06-04T08:00:00Z,28.9818,-94.9186,2.0,48.25684564,27.75634162,-99999.0,'11111222,11111222,99999999' 
TABS,ioos:station:wmo:42043:1,1998-06-04T08:30:00Z,28.9818,-94.9186,2.0,51.06187984,28.92684566,-99999.0,'11111222,11111222,99999999' 
TABS,ioos:station:wmo:42043:1,1998-06-04T09:00:00Z,28.9818,-94.9186,2.0,54.24957316,27.53925562,-99999.0,'11111222,11111222,99999999' 
TABS,ioos:station:wmo:42043:1,1998-06-04T09:30:00Z,28.9818,-94.9186,2.0,60.1499285,29.03161897,-99999.0,'11111222,11111222,99999999' 
TABS,ioos:station:wmo:42043:1,1998-06-04T10:00:00Z,28.9818,-94.9186,2.0,62.76544607,28.31949858,-99999.0,'11111222,11111222,99999999' 
TABS,ioos:station:wmo:42043:1,1998-06-04T10:30:00Z,28.9818,-94.9186,2.0,62.67111427,30.18960086,-99999.0,'11111222,11111222,99999999' 
TABS,ioos:station:wmo:42043:1,1998-06-04T11:00:00Z,28.9818,-94.9186,2.0,62.11820316,28.99604283,-99999.0,'11111222,11111222,99999999' 
TABS,ioos:station:wmo:42043:1,1998-06-04T11:30:00Z,28.9818,-94.9186,2.0,61.6852989,30.46497825,-99999.0,'11111222,11111222,99999999' 
TABS,ioos:station:wmo:42043:1,1998-06-04T12:00:00Z,28.9818,-94.9186,2.0,61.47844004,29.34090149,-99999.0,'11111222,11111222,99999999' 
TABS,ioos:station:wmo:42043:1,1998-06-04T12:30:00Z,28.9818,-94.9186,2.0,64.08312409,29.65215844,-99999.0,'11111222,11111222,99999999' 
TABS,ioos:station:wmo:42043:1,1998-06-04T13:00:00Z,28.9818,-94.9186,2.0,62.49943035,32.59279982,-99999.0,'11111222,11111222,99999999' 
TABS,ioos:station:wmo:42043:1,1998-06-04T13:30:00Z,28.9818,-94.9186,2.0,62.67950776,30.52498157,-99999.0,'11111222,11111222,99999999' 
TABS,ioos:station:wmo:42043:1,1998-06-04T14:00:00Z,28.9818,-94.9186,2.0,60.19030334,31.7628352,-99999.0,'11111222,11111222,99999999' 
TABS,ioos:station:wmo:42043:1,1998-06-04T14:30:00Z,28.9818,-94.9186,2.0,60.38659486,31.36722653,-99999.0,'11111222,11111222,99999999' 
TABS,ioos:station:wmo:42043:1,1998-06-04T15:00:00Z,28.9818,-94.9186,2.0,60.16476317,31.43664263,-99999.0,'11111222,11111222,99999999' 
TABS,ioos:station:wmo:42043:1,1998-06-04T15:30:00Z,28.9818,-94.9186,2.0,57.86456449,32.20387865,-99999.0,'11111222,11111222,99999999' 
TABS,ioos:station:wmo:42043:1,1998-06-04T16:00:00Z,28.9818,-94.9186,2.0,58.88830102,28.54603475,-99999.0,'11111222,11111222,99999999' 